Location: Amsterdam
(30.7274°N, 84.4357°W)
Time: 19:34:08
(UTC+00:00)

Tiros 1 - Pass Details

Date: 23 February 2026
Orbit: 618 x 649 km, 48.4° (Epoch: 10 March)

Event Time Altitude Azimuth Distance (km) Brightness Sun altitude
Rises 16:42:47 0° 323° (NW) 2,898 10.1 46.4°
Reaches altitude 10° 16:46:04 10° 347° (NNW) 1,985 9.4 46.7°
Maximum altitude 16:48:38 15° 22° (NNE) 1,689 9.2 46.9°
Drops below altitude 10° 16:51:13 10° 56° (ENE) 1,977 9.7 47.1°
Sets 16:54:28 0° 81° (E) 2,879 10.6 47.4°
